Weather History for KLAN - April, 2013

Change the Weather History Date:

Monday, April 29, 2013

  Actual Average Record
Temperature  
Mean Temperature 62 °F 52 °F  
Max Temperature 72 °F 63 °F 86 °F (1899)
Min Temperature 51 °F 41 °F 22 °F (1908)
Degree Days  
Heating Degree Days 3 13  
Month to date heating degree days 615 521  
Since 1 July heating degree days 6341 6385  
Cooling Degree Days 0 0  
Month to date cooling degree days 0 0  
Year to date cooling degree days 0 1  
Growing Degree Days 12 (Base 50)    
Moisture  
Dew Point 51 °F    
Average Humidity 72    
Maximum Humidity 100    
Minimum Humidity 44    
Precipitation  
Precipitation T in 0.10 in 1.75 in (1909)
Month to date precipitation 7.60 2.93  
Year to date precipitation 13.78 8.11  
Snow  
Snow 0.00 in 0.00 in 4.00 in (1909)
Month to date snowfall 0.5 1.9  
Since 1 July snowfall 30.2 51.1  
Snow Depth 0.00 in    
Sea Level Pressure  
Sea Level Pressure 29.88 in    
Wind  
Wind Speed 5 mph (SW)    
Max Wind Speed 14 mph    
Max Gust Speed 16 mph    
Visibility 4 miles    
Events Fog    
T = Trace of Precipitation, MM = Missing Value Source: NWS Daily Summary

Daily Weather History Graph

Daily Weather History Graph

Search for Another Location

Airport or City:

Trip Planner

Search our weather history database for the weather conditions in past years. The results will help you decide how hot, cold, wet, or windy it might be!

Date:

Astronomy

Apr. 29, 2013 Rise Set
Actual Time 6:35 AM EDT 8:36 PM EDT
Civil Twilight 6:04 AM EDT 9:07 PM EDT
Nautical Twilight 5:26 AM EDT 9:45 PM EDT
Astronomical Twilight 4:45 AM EDT 10:26 PM EDT
Moon 12:07 AM EDT (4/29) 9:52 AM EDT (4/29)
Length of Visible Light 15h 03m
Length of Day
14h 01m
Waning Gibbous, 80% of the Moon is Illuminated
Apr 29
Waning Gibbous
May 2
Last Quarter
May 9
New
May 18
First Quarter
May 25
Full

Hourly Weather History & Observations

Time (EDT) Temp. Dew Point Humidity Pressure Visibility Wind Dir Wind Speed Gust Speed Precip Events Conditions
12:03 AM 53.6 °F 51.8 °F 94% 29.86 in 0.5 mi Calm Calm - N/A Fog Fog
12:12 AM 53.6 °F 51.8 °F 94% 29.86 in 1.5 mi Calm Calm - N/A   Overcast
12:38 AM 53.6 °F 51.8 °F 94% 29.86 in 1.2 mi Calm Calm - N/A   Overcast
12:43 AM 53.6 °F 51.8 °F 94% 29.86 in 2.0 mi Calm Calm - N/A   Overcast
12:53 AM 53.1 °F 51.1 °F 93% 29.86 in 3.0 mi Calm Calm - N/A   Overcast
1:12 AM 53.6 °F 51.8 °F 94% 29.86 in 2.5 mi Calm Calm - N/A   Overcast
1:19 AM 53.6 °F 51.8 °F 94% 29.86 in 3.0 mi Calm Calm - N/A   Overcast
1:24 AM 53.6 °F 51.8 °F 94% 29.86 in 3.0 mi Calm Calm - N/A   Overcast
1:26 AM 53.6 °F 51.8 °F 94% 29.86 in 2.5 mi Calm Calm - N/A   Overcast
1:44 AM 53.6 °F 51.8 °F 94% 29.86 in 1.2 mi Calm Calm - N/A   Overcast
1:48 AM 53.6 °F 51.8 °F 94% 29.86 in 1.5 mi Calm Calm - N/A   Mostly Cloudy
1:53 AM 52.0 °F 51.1 °F 97% 29.87 in 1.5 mi Calm Calm - N/A   Mostly Cloudy
2:02 AM 51.8 °F 51.8 °F 100% 29.86 in 1.0 mi Calm Calm - N/A   Mostly Cloudy
2:11 AM 51.8 °F 50.0 °F 94% 29.86 in 0.5 mi Calm Calm - N/A Fog Fog
2:15 AM 51.8 °F 50.0 °F 94% 29.86 in 0.5 mi West 3.5 mph - N/A Fog Fog
2:22 AM 51.8 °F 51.8 °F 100% 29.86 in 1.8 mi West 3.5 mph - N/A   Mostly Cloudy
2:28 AM 51.8 °F 51.8 °F 100% 29.86 in 2.5 mi Calm Calm - N/A   Overcast
2:31 AM 51.8 °F 51.8 °F 100% 29.86 in 1.2 mi Calm Calm - N/A   Overcast
2:37 AM 51.8 °F 50.0 °F 94% 29.86 in 0.5 mi Calm Calm - N/A Fog Fog
2:44 AM 51.8 °F 50.0 °F 94% 29.86 in 1.8 mi Calm Calm - N/A   Overcast
2:51 AM 51.8 °F 50.0 °F 94% 29.86 in 2.5 mi Calm Calm - N/A   Overcast
2:53 AM 52.0 °F 51.1 °F 97% 29.87 in 2.5 mi Calm Calm - N/A   Overcast
3:01 AM 51.8 °F 51.8 °F 100% 29.86 in 3.0 mi Calm Calm - N/A   Overcast
3:08 AM 51.8 °F 50.0 °F 94% 29.86 in 2.5 mi West 3.5 mph - N/A   Overcast
3:22 AM 51.8 °F 50.0 °F 94% 29.86 in 2.0 mi Calm Calm - N/A   Overcast
3:53 AM 52.0 °F 51.1 °F 97% 29.87 in 2.5 mi Calm Calm - N/A   Overcast
4:09 AM 51.8 °F 51.8 °F 100% 29.87 in 2.0 mi WSW 3.5 mph - N/A   Overcast
4:46 AM 51.8 °F 51.8 °F 100% 29.87 in 1.8 mi Calm Calm - N/A   Overcast
4:53 AM 52.0 °F 51.1 °F 97% 29.88 in 1.8 mi Calm Calm - N/A   Overcast
5:19 AM 51.8 °F 51.8 °F 100% 29.88 in 2.0 mi Calm Calm - N/A   Overcast
5:27 AM 51.8 °F 51.8 °F 100% 29.88 in 1.8 mi Calm Calm - N/A   Overcast
5:35 AM 51.8 °F 51.8 °F 100% 29.89 in 2.0 mi Calm Calm - N/A   Overcast
5:53 AM 52.0 °F 51.1 °F 97% 29.89 in 2.0 mi Calm Calm - N/A   Overcast
6:12 AM 51.8 °F 51.8 °F 100% 29.89 in 1.2 mi Calm Calm - N/A   Overcast
6:33 AM 51.8 °F 50.0 °F 94% 29.89 in 1.5 mi Calm Calm - N/A   Overcast
6:46 AM 51.8 °F 50.0 °F 94% 29.90 in 0.8 mi Calm Calm - N/A   Overcast
6:53 AM 52.0 °F 50.0 °F 93% 29.91 in 0.5 mi Calm Calm - N/A Fog Fog
7:07 AM 51.8 °F 51.8 °F 100% 29.91 in 1.2 mi Calm Calm - N/A   Overcast
7:37 AM 53.6 °F 51.8 °F 94% 29.91 in 1.8 mi WSW 3.5 mph - N/A   Overcast
7:45 AM 53.6 °F 51.8 °F 94% 29.92 in 2.0 mi WSW 4.6 mph - N/A   Overcast
7:53 AM 53.1 °F 52.0 °F 96% 29.93 in 2.0 mi SW 3.5 mph - N/A   Overcast
8:21 AM 53.6 °F 51.8 °F 94% 29.93 in 3.0 mi WSW 3.5 mph - N/A   Mostly Cloudy
8:49 AM 55.4 °F 51.8 °F 88% 29.93 in 5.0 mi Calm Calm - N/A   Mostly Cloudy
8:53 AM 55.9 °F 52.0 °F 87% 29.94 in 5.0 mi Calm Calm - N/A   Overcast
9:53 AM 57.9 °F 51.1 °F 78% 29.94 in 10.0 mi West 8.1 mph - N/A   Overcast
10:53 AM 62.1 °F 50.0 °F 65% 29.93 in 10.0 mi WSW 6.9 mph - N/A   Partly Cloudy
11:53 AM 64.0 °F 51.1 °F 63% 29.92 in 10.0 mi Variable 4.6 mph - N/A   Partly Cloudy
12:53 PM 66.0 °F 50.0 °F 56% 29.91 in 10.0 mi SSW 6.9 mph - N/A   Scattered Clouds
1:53 PM 69.1 °F 46.9 °F 45% 29.89 in 10.0 mi Calm Calm - N/A   Scattered Clouds
2:53 PM 71.1 °F 48.9 °F 45% 29.89 in 10.0 mi SW 4.6 mph - N/A   Mostly Cloudy
3:53 PM 71.1 °F 48.9 °F 45% 29.88 in 10.0 mi South 4.6 mph - N/A   Mostly Cloudy
4:53 PM 71.1 °F 48.9 °F 45% 29.87 in 10.0 mi SSW 8.1 mph - N/A   Mostly Cloudy
5:53 PM 71.1 °F 48.9 °F 45% 29.87 in 10.0 mi South 10.4 mph - N/A   Mostly Cloudy
6:53 PM 70.0 °F 48.0 °F 46% 29.88 in 10.0 mi SSW 12.7 mph - N/A   Mostly Cloudy
7:53 PM 68.0 °F 46.9 °F 47% 29.88 in 10.0 mi South 6.9 mph - N/A   Clear
8:53 PM 66.0 °F 48.0 °F 52% 29.88 in 10.0 mi South 8.1 mph - N/A   Overcast
9:53 PM 64.9 °F 50.0 °F 58% 29.90 in 10.0 mi South 9.2 mph - N/A   Mostly Cloudy
10:53 PM 64.0 °F 51.1 °F 63% 29.90 in 10.0 mi South 6.9 mph - N/A   Scattered Clouds
11:53 PM 63.0 °F 51.1 °F 65% 29.91 in 10.0 mi SSW 6.9 mph - 0.00 in   Mostly Cloudy